FENGYUN 1C DEB

Satellite information

Favourite Embed

Satellite Type and Status

DEBRISIN ORBIT

Key statistics

Satellite FENGYUN 1C DEB at a glance.

Uptime

9617

Days in orbit

Revolutions

≈ 14.4

Per day

Orbit

SSO

Sun Synchronous Orbit

Inclination

98.8

Latest

Satellite identification and parameters

Extended collection of information and parameters for FENGYUN 1C DEB.

Object identification

Identified? True

Debris? True

Object name: FENGYUN 1C DEB

International designator: 1999-025ADC

Object number (NORAD): 30389

Object ID (CCSDS): 30389

Country: PEOPLES REPUBLIC OF CHINA (PRC)

Current information (Y/N): Y

RCS size: SMALL

Orbital parameters

Period: 99.857 minutes

Inclination: 98.8431 deg

SMA: 7129.81 km

Apoapsis: 762.156 km

Periapsis: 741.195 km

RAAN: 327.4551 deg

Eccentricy: 0.00146994

Argument of periapsis: 153.8018 deg

Mean anomaly: 326.6984 deg

Mean motion: 14.42068233 rev/day

Mean motion (dot): 0.0000949 rev/day2

B* drag term: 0.0028957358 1/REarth

Two-line elements (TLE)

Creation date: Sept. 7, 2025, 3:09 a.m.

Reference frame: TEME

Reference center: EARTH

Epoch: Sept. 6, 2025, 7:05 p.m. UTC

TLE line 0: 0 FENGYUN 1C DEB

TLE line 1: 1 30389U 99025ADC 25249.79522181 .00009490 00000-0 28957-2 0 9990

TLE line 2: 2 30389 98.8431 327.4551 0014699 153.8018 326.6984 14.42068233963885

Live tracking on map

Real-time ground track for satellite FENGYUN 1C DEB.

In-orbit conjunctions

A list of the most updated potential collisions computed for object FENGYUN 1C DEB.

Target Orbit TCA Probability of collision Miss distance Type
SL-8 R/B LEO 2025-03-05 05:27:09 0.0003370947 334.0 (m) ROCKET BODY

Associated space launch

Chinese polar orbiting meteorological satellite

FENGYUN 1C DEB was lifted into orbit during the mission ‘Long March 4B | Feng Yun 1C’, on board a Long March 4B space rocket.

The launch took place on May 10, 1999, 1:33 a.m. from Launch Complex 7.

For more information about the launch, click the button.

Launch to space Long March 4B | Feng Yun 1C
Long March 4B | Feng Yun 1C

Agency: N/A

Status: Launch Successful

Launch date: May 10, 1999, 1:33 a.m. UTC

Rocket: Long March 4B

Launch pad: Launch Complex 7

Location: Taiyuan Satellite Launch Center, People's Republic of China

...

Latest news about this satellite

There are no fresh news available about this satellite. Check back as we update our databases every day.


Newsletter sign-up

Weekly statistics, charts and insights to help you stay on top of the space industry.